Location: Newark
(34.6501°N, 117.8502°W)
Time: 11:14:04
(UTC+00:00)

N. Korean satellite - Visible Passes

Search period start: 20 September 2021 00:00
Search period end: 30 September 2021 00:00
Orbit: 448 x 498 km, 97.3° (Epoch: 19 September)

Date Brightness Start Highest point End Pass type
(mag) Time Alt. Az. Time Alt. Az. Time Alt. Az.
20 Sep 9.7 12:13:19 10° ENE 12:15:25 15° E 12:17:32 10° SE visible
22 Sep 7.6 12:49:47 10° NNE 12:53:15 50° E 12:56:44 10° S visible
23 Sep 9.4 12:22:42 10° NE 12:25:26 20° E 12:28:10 10° SE visible
25 Sep 6.8 12:59:36 10° NNE 13:03:11 73° E 13:06:47 10° S visible
26 Sep 8.8 12:32:15 10° NE 12:35:23 28° E 12:38:31 10° SSE visible
27 Sep 10.0 12:05:58 10° ENE 12:07:29 12° E 12:08:58 10° ESE visible
28 Sep 6.5 13:09:27 10° N 13:13:03 79° WNW 13:16:40 10° SSW visible
29 Sep 8.1 12:41:52 10° NNE 12:45:15 39° E 12:48:40 10° S visible
